Location: Arborea
(39.7744°N, 8.5819°E)
Time: 07:53:50
(UTC+00:00)

Cosmos 1455 Rocket - Pass Details

Date: 24 October 2021
Orbit: 604 x 630 km, 82.5° (Epoch: 02 December)

Event Time Altitude Azimuth Distance (km) Brightness Sun altitude
Rises 17:03:33 0° 185° (S) 2,884 6.7 -6.5°
Reaches altitude 10° 17:05:45 10° 185° (S) 1,987 5.9 -6.9°
Maximum altitude 17:10:10 86° 99° (E) 634 3.1 -7.7°
Drops below altitude 10° 17:14:39 10° 9° (N) 2,014 5.5 -8.6°
Sets 17:16:54 0° 9° (N) 2,928 6.3 -9.0°
